EN

Hourly Weather Gajraula

Today, 27 November, Friday

Time Temperature Precipitation Wind Pressure Humidity
00:00 +17°C° 0 mm 4 mps 745 mmHg 48%
01:00 +17°C° 0 mm 4 mps 745 mmHg 50%
02:00 +17°C° 0 mm 4 mps 745 mmHg 52%
03:00 +15°C° 0 mm 4 mps 745 mmHg 53%
04:00 +16°C° 0 mm 3 mps 745 mmHg 54%
05:00 +14°C° 0 mm 3 mps 744 mmHg 56%
06:00 +16°C° 0 mm 3 mps 745 mmHg 53%
07:00 +17°C° 0 mm 4 mps 745 mmHg 50%
08:00 +18°C° 0 mm 4 mps 746 mmHg 47%
09:00 +21°C° 0 mm 4 mps 746 mmHg 40%
10:00 +25°C° 0 mm 4 mps 746 mmHg 33%
11:00 +27°C° 0 mm 4 mps 747 mmHg 26%
12:00 +28°C° 0 mm 4 mps 746 mmHg 25%
13:00 +28°C° 0 mm 4 mps 745 mmHg 23%
14:00 +29°C° 0 mm 4 mps 744 mmHg 22%
15:00 +27°C° 0 mm 3 mps 744 mmHg 25%
16:00 +25°C° 0 mm 3 mps 744 mmHg 28%
17:00 +23°C° 0 mm 2 mps 744 mmHg 32%
18:00 +21°C° 0 mm 2 mps 745 mmHg 34%
19:00 +20°C° 0 mm 2 mps 745 mmHg 36%
20:00 +19°C° 0 mm 3 mps 746 mmHg 38%
21:00 +19°C° 0 mm 3 mps 746 mmHg 39%
22:00 +18°C° 0 mm 2 mps 746 mmHg 40%
23:00 +17°C° 0 mm 2 mps 746 mmHg 41%

Tomorrow, 28 November, Saturday

Time Temperature Precipitation Wind Pressure Humidity
00:00 +17°C° 0 mm 2 mps 745 mmHg 43%
01:00 +16°C° 0 mm 2 mps 745 mmHg 44%
02:00 +16°C° 0 mm 2 mps 744 mmHg 46%
03:00 +16°C° 0 mm 2 mps 744 mmHg 46%
04:00 +15°C° 0 mm 2 mps 745 mmHg 47%
05:00 +15°C° 0 mm 2 mps 745 mmHg 48%
06:00 +15°C° 0 mm 2 mps 745 mmHg 46%
07:00 +16°C° 0 mm 3 mps 745 mmHg 43%
08:00 +17°C° 0 mm 3 mps 746 mmHg 41%
09:00 +20°C° 0 mm 3 mps 745 mmHg 35%
10:00 +22°C° 0 mm 4 mps 745 mmHg 28%
11:00 +26°C° 0 mm 4 mps 745 mmHg 22%
12:00 +27°C° 0 mm 4 mps 745 mmHg 21%
13:00 +28°C° 0 mm 4 mps 744 mmHg 20%
14:00 +29°C° 0 mm 4 mps 743 mmHg 18%
15:00 +27°C° 0 mm 4 mps 743 mmHg 22%
16:00 +25°C° 0 mm 3 mps 743 mmHg 25%
17:00 +23°C° 0 mm 2 mps 743 mmHg 28%
18:00 +21°C° 0 mm 2 mps 743 mmHg 30%
19:00 +19°C° 0 mm 2 mps 743 mmHg 32%
20:00 +18°C° 0 mm 2 mps 744 mmHg 33%
21:00 +18°C° 0 mm 2 mps 744 mmHg 34%
22:00 +17°C° 0 mm 2 mps 744 mmHg 35%
23:00 +17°C° 0 mm 2 mps 744 mmHg 35%

Day after tomorrow, 29 November, Sunday

Time Temperature Precipitation Wind Pressure Humidity
00:00 +16°C° 0 mm 1 mps 743 mmHg 36%
01:00 +16°C° 0 mm 1 mps 743 mmHg 37%
02:00 +15°C° 0 mm 1 mps 743 mmHg 38%
03:00 +15°C° 0 mm 1 mps 743 mmHg 38%
04:00 +14°C° 0 mm 1 mps 743 mmHg 39%
05:00 +14°C° 0 mm 1 mps 743 mmHg 39%
06:00 +15°C° 0 mm 1 mps 744 mmHg 37%
07:00 +16°C° 0 mm 1 mps 745 mmHg 35%
08:00 +18°C° 0 mm 1 mps 745 mmHg 33%
09:00 +21°C° 0 mm 1 mps 745 mmHg 29%
10:00 +23°C° 0 mm 1 mps 745 mmHg 25%
11:00 +26°C° 0 mm 1 mps 745 mmHg 21%
12:00 +26°C° 0 mm 2 mps 744 mmHg 19%
13:00 +27°C° 0 mm 2 mps 744 mmHg 18%
14:00 +28°C° 0 mm 2 mps 743 mmHg 16%
15:00 +26°C° 0 mm 2 mps 743 mmHg 19%
16:00 +24°C° 0 mm 2 mps 742 mmHg 21%
17:00 +22°C° 0 mm 1 mps 742 mmHg 23%
18:00 +21°C° 0 mm 1 mps 742 mmHg 25%
19:00 +20°C° 0 mm 1 mps 743 mmHg 26%
20:00 +19°C° 0 mm 1 mps 743 mmHg 27%
21:00 +19°C° 0 mm 1 mps 743 mmHg 28%
22:00 +18°C° 0 mm 1 mps 743 mmHg 29%
23:00 +18°C° 0 mm 1 mps 743 mmHg 30%

30 November, Monday

Time Temperature Precipitation Wind Pressure Humidity
00:00 +16°C° 0 mm 1 mps 742 mmHg 30%
01:00 +16°C° 0 mm 1 mps 742 mmHg 31%
02:00 +16°C° 0 mm 1 mps 742 mmHg 31%
03:00 +15°C° 0 mm 1 mps 742 mmHg 32%
04:00 +15°C° 0 mm 1 mps 742 mmHg 33%
05:00 +14°C° 0 mm 1 mps 742 mmHg 33%
06:00 +15°C° 0 mm 1 mps 742 mmHg 33%
07:00 +18°C° 0 mm 1 mps 743 mmHg 32%
08:00 +19°C° 0 mm 1 mps 744 mmHg 31%
09:00 +21°C° 0 mm 1 mps 744 mmHg 27%
10:00 +24°C° 0 mm 1 mps 744 mmHg 23%
11:00 +26°C° 0 mm 1 mps 744 mmHg 19%
12:00 +27°C° 0 mm 1 mps 743 mmHg 17%
13:00 +28°C° 0 mm 2 mps 742 mmHg 16%
14:00 +28°C° 0 mm 2 mps 742 mmHg 14%
15:00 +27°C° 0 mm 2 mps 742 mmHg 16%
16:00 +25°C° 0 mm 2 mps 742 mmHg 18%
17:00 +23°C° 0 mm 1 mps 742 mmHg 20%
18:00 +22°C° 0 mm 1 mps 742 mmHg 21%
19:00 +21°C° 0 mm 1 mps 742 mmHg 22%
20:00 +20°C° 0 mm 1 mps 743 mmHg 22%
21:00 +20°C° 0 mm 1 mps 743 mmHg 24%
22:00 +19°C° 0 mm 1 mps 743 mmHg 25%
23:00 +18°C° 0 mm 1 mps 743 mmHg 26%

1 December, Tuesday

Time Temperature Precipitation Wind Pressure Humidity
00:00 +18°C° 0 mm 1 mps 743 mmHg 28%
01:00 +18°C° 0 mm 1 mps 742 mmHg 30%
02:00 +16°C° 0 mm 1 mps 742 mmHg 32%
03:00 +16°C° 0 mm 1 mps 742 mmHg 34%
04:00 +14°C° 0 mm 0 mps 742 mmHg 36%
05:00 +14°C° 0 mm 0 mps 742 mmHg 37%
06:00 +15°C° 0 mm 0 mps 743 mmHg 35%
07:00 +16°C° 0 mm 0 mps 743 mmHg 34%
08:00 +17°C° 0 mm 0 mps 744 mmHg 32%
09:00 +20°C° 0 mm 0 mps 744 mmHg 28%
10:00 +22°C° 0 mm 0 mps 744 mmHg 24%
11:00 +25°C° 0 mm 0 mps 744 mmHg 19%
12:00 +25°C° 0 mm 0 mps 743 mmHg 18%
13:00 +28°C° 0 mm 1 mps 743 mmHg 16%
14:00 +29°C° 0 mm 1 mps 742 mmHg 15%
15:00 +27°C° 0 mm 1 mps 742 mmHg 17%
16:00 +25°C° 0 mm 1 mps 742 mmHg 19%
17:00 +23°C° 0 mm 1 mps 742 mmHg 21%
18:00 +22°C° 0 mm 1 mps 742 mmHg 23%
19:00 +21°C° 0 mm 1 mps 742 mmHg 25%
20:00 +20°C° 0 mm 1 mps 743 mmHg 26%
21:00 +20°C° 0 mm 1 mps 743 mmHg 28%
22:00 +19°C° 0 mm 1 mps 743 mmHg 30%
23:00 +19°C° 0 mm 1 mps 743 mmHg 32%

2 December, Wednesday

Time Temperature Precipitation Wind Pressure Humidity
00:00 +18°C° 0 mm 1 mps 742 mmHg 34%
01:00 +18°C° 0 mm 1 mps 742 mmHg 35%
02:00 +16°C° 0 mm 1 mps 742 mmHg 36%
03:00 +16°C° 0 mm 1 mps 742 mmHg 37%
04:00 +15°C° 0 mm 0 mps 742 mmHg 38%
05:00 +14°C° 0 mm 0 mps 742 mmHg 38%
06:00 +16°C° 0 mm 1 mps 742 mmHg 36%
07:00 +18°C° 0 mm 1 mps 743 mmHg 34%
08:00 +20°C° 0 mm 1 mps 743 mmHg 32%
09:00 +21°C° 0 mm 2 mps 743 mmHg 27%
10:00 +24°C° 0 mm 2 mps 743 mmHg 23%
11:00 +27°C° 0 mm 3 mps 743 mmHg 18%
12:00 +28°C° 0 mm 3 mps 742 mmHg 17%
13:00 +28°C° 0 mm 4 mps 741 mmHg 16%
14:00 +29°C° 0 mm 4 mps 740 mmHg 15%
15:00 +27°C° 0 mm 3 mps 740 mmHg 18%
16:00 +25°C° 0 mm 3 mps 740 mmHg 20%
17:00 +23°C° 0 mm 2 mps 740 mmHg 23%
18:00 +21°C° 0 mm 2 mps 740 mmHg 24%
19:00 +20°C° 0 mm 2 mps 740 mmHg 25%
20:00 +20°C° 0 mm 1 mps 740 mmHg 26%
21:00 +20°C° 0 mm 1 mps 740 mmHg 27%
22:00 +19°C° 0 mm 1 mps 740 mmHg 28%
23:00 +18°C° 0 mm 1 mps 740 mmHg 28%
Show more